Current weather by "City, St" or "zip code"  
 

Current Conditions: Maxwell Air Force Base / Montgomery, AL

Mostly Cloudy


46.0 F

Last Updated on Apr 23 2021, 4:56 am CDT
Humidity: 92%
Wind Speed: N 0.0 mph
Barometer 30.09 in
Dewpoint: 44.2 F
Visibility: 10.00 mi
Precip: --
Heat Index: NA
Wind Chill: NA
Current conditions at:

Maxwell Air Force Base / Montgomery, AL (KMXF)

Lat: 32.38333 Lon: 86.36667

Local Radar Image active severe weather and emergency alerts image image weather storm and storm spotter reports image weather observation monitoring service image
Local
Radar
Active
Alerts
Storm Reports Obs
Monitoring

Sign-up For Email & Text Message Weather Alert Notification Services



Advertise Here

Observation History for Maxwell Air Force Base / Montgomery, AL


Time Wind
(mph)
Vis
(mi)
Weather Precip (in) Temperature (F) Relative
Humidity
Wind
Chill
(F)
Heat
Index
(F)
Pressure
Air Dwpt altimeter
(in)
sea level
(mb)
Rmks
4:56 am CDT N 0.0 10.00 Mostly Cloudy -- 46.0 44.2 92% NA NA 30.09 1019.2
3:56 am CDT NE 3.5 10.00 Fair -- 47.0 44.8 91% NA NA 30.10 1019.5
2:56 am CDT N 0.0 10.00 Fair -- 48.0 44.2 87% NA NA 30.11 1019.9
1:56 am CDT N 0.0 10.00 Fair -- 50.0 44.8 83% NA NA 30.13 1020.5
12:56 am CDT N 0.0 10.00 Fair -- 49.0 47.1 94% NA NA 30.14 1020.9
11:56 pm CDT N 0.0 10.00 Fair -- 48.0 45.1 90% NA NA 30.15 1021.2
10:56 pm CDT N 0.0 10.00 Fair -- 49.0 44.6 83% NA NA 30.14 1020.9
9:56 pm CDT N 0.0 10.00 Fair -- 51.0 43.7 75% NA NA 30.15 1021.3
8:56 pm CDT E 3.5 10.00 Fair -- 54.0 40.1 59% NA NA 30.13 1020.6
7:56 pm CDT N 0.0 10.00 Fair -- 54.0 41.7 64% NA NA 30.12 1020.3
6:56 pm CDT N 0.0 10.00 Fair -- 61.0 34.2 36% NA NA 30.10 1019.6
5:56 pm CDT N 0.0 10.00 Fair -- 65.0 27.3 24% NA NA 30.11 1019.9
4:56 pm CDT E 4.6 10.00 Fair -- 66.0 27.9 24% NA NA 30.13 1020.6
3:56 pm CDT E 3.5 10.00 Fair -- 66.0 27.1 23% NA NA 30.14 1020.9
2:56 pm CDT N 0.0 10.00 Fair -- 65.0 26.1 23% NA NA 30.17 1021.9
1:56 pm CDT N 5.8 10.00 Fair -- 64.0 25.3 23% NA NA 30.19 1022.6
11:56 am CDT NE 5.8 G 16.1 10.00 Fair -- 61.0 24.8 25% 61 NA 30.24 1024.3
10:56 am CDT E 4.6 10.00 Fair -- 58.0 28.0 32% 58 NA 30.26 1025.0
9:56 am CDT NE 8.1 10.00 Partly Cloudy -- 55.0 30.2 39% 53 NA 30.26 1025.0
8:56 am CDT NE 5.8 10.00 Fair -- 50.0 33.8 54% 48 NA 30.26 1025.0
7:56 am CDT NE 3.5 10.00 Overcast -- 44.0 36.1 73% NA NA 30.25 1024.7
6:56 am CDT N 4.6 7.00 Partly Cloudy -- 40.0 36.1 85% 37 NA 30.23 1024.0
5:56 am CDT N 4.6 10.00 A Few Clouds -- 39.0 36.0 88% 36 NA 30.21 1023.3

Regional Weather Observation


Maxwell Air Force Base / Montgomery, AL (KMXF)

Mostly Cloudy
46.0 F

Montgomery, Dannelly Field, AL (KMGM)

A Few Clouds
47.0 F

Craig Field / Selma, AL (KSEM)

Fair
46.0 F

Alexander City, Thomas C Russell Field Airport, AL (KALX)

Fair
45.0 F

Alabaster, Shelby County Airport, AL (KEET)

Overcast
49.0 F

Merkel Field Sylacauga Municipal Airport, AL (KSCD)

Mostly Cloudy
44.0 F

Advertise Here


Advertise Here